Regional Weather Roundup
Issued by NWS

Home | Current Version | Previous Version | Graphics & Text | Print | Product List | Glossary On
Versions: 1 2 3 4 5 6 7 8 9 10 11 12 13 14 15 16 17 18 19 20 21 22 23 24 25 26 27 28 29 30 31 32 33 34 35 36 37 38 39 40 41 42 43 44 45 46 47 48 49 50
707
ASUS43 KTOP 140708
RWRKS

WEATHER ROUNDUP FOR KANSAS
NATIONAL WEATHER SERVICE GOODLAND KS
100 AM CST SUN FEB 14 2016

NOTE:  "FAIR" INDICATES FEW OR NO CLOUDS BELOW 12,000 FEET WITH NO
SIGNIFICANT WEATHER AND/OR OBSTRUCTIONS TO VISIBILITY.

KSZ001>006-013>018-027>032-041>047-140800-
NORTHWEST KANSAS

CITY           SKY/WX    TMP DP  RH WIND       PRES   REMARKS
GOODLAND       CLEAR     30  27  88 NW12      30.04F WCI  20
HAYS           CLOUDY    28  12  50 N14       30.07R WCI  17
HILL CITY      CLEAR     26  20  77 SW5       30.05F
RUSSELL        PTCLDY    23  14  68 N10       30.05R WCI  12
$$

KSZ061>065-074>080-084>089-140800-
SOUTHWEST KANSAS

CITY           SKY/WX    TMP DP  RH WIND       PRES   REMARKS
DODGE CITY     CLOUDY    27  21  78 CALM      29.92R
ELKHART          N/A     32  20  61 NW10        N/A  WCI  24
GARDEN CITY    PTCLDY    26  21  81 N21       29.99R WCI  12
GREAT BEND     CLOUDY    30  14  51 NE7       29.98R
LIBERAL        CLOUDY    30  21  69 NW9       29.89S
PRATT          PTCLDY    31  17  56 SE9       29.91F
$$

KSZ066>073-081>083-090>101-140800-
SOUTHEAST KANSAS

CITY           SKY/WX    TMP DP  RH WIND       PRES   REMARKS
CHANUTE        CLOUDY    30  11  45 SE10      30.04F WCI  21
COFFEYVILLE    CLOUDY    39  18  42 SE13      30.05F WCI  31
HUTCHINSON     PTCLDY    29  11  47 NE7       29.99R
MEDICINE LODGE   N/A     38  26  62 E10G20    29.91F WCI  31
NEWTON         CLOUDY    25   9  50 E10       30.00R WCI  15
PARSONS        CLOUDY    35  15  44 SE6       30.05F
WICHITA INTL   CLOUDY    33  14  45 SE13      29.94F WCI  24
WICHITA JABRA  MOCLDY    28  12  51 SE8       29.96F
WICHITA MCCONL PTCLDY    31  13  48 SE9       29.95F
WINFIELD       CLOUDY    36  18  48 E8        29.98F
$$

KSZ007>012-019>026-033>040-048>060-102>105-140800-
NORTHEAST KANSAS

CITY           SKY/WX    TMP DP  RH WIND       PRES   REMARKS
CONCORDIA      CLOUDY    20   8  60 E3        30.08R
EMPORIA        CLOUDY    20   8  60 E10       30.04F WCI   9
LAWRENCE       PTCLDY    23   5  46 E12       30.13F WCI  12
MANHATTAN      CLOUDY    22   6  50 E12       30.08F WCI  10
MARYSVILLE     PTCLDY    21   7  53 SE6       30.11R
OLATHE IND     CLOUDY    22   5  48 E14       30.11F WCI   9
OLATHE EXE     CLOUDY    22   4  46 SE12G21   30.11F WCI  10
SALINA         PTCLDY    25   9  50 E8        30.06R
TOPEKA BILLARD PTCLDY    24   5  44 E9        30.15S
TOPEKA FORBES  PTCLDY    23   7  50 E9        30.11F
$$




USA.gov is the U.S. government's official web portal to all federal, state and local government web resources and services.